Accueil
METAR-TAF:

METAR-TAF

Aéroports :

Dewar Lakes, Nunavut, Canada

latitude: 68-39N, longitude: 071-10W, altitude: 518 m

Observation

Le bulletin a été fait il y a 1 heure et 4 minutes, à 14:00 UTC
Vent 8 kt de nord
Température -14°C
Humidité 92%
Pression 997 hPa
Quelques nuages à une hauteur de 400 ft
Nuages épars à une hauteur de 2000 ft
Nuages fragmentés à une hauteur de 2600 ft

METAR: CWUW 261400Z AUTO 01008KT ////SM FEW004 SCT020 BKN026 M14/M15 A2944

Heure: 11:04 (15:04 UTC)


TAF: absent

Observations et prévisions météorologiques de plus de 4000 aéroports (messages METAR et TAF).

Les stations disponibles sont représentées par des disques jaunes et rouges sur la carte.

Passer la souris dessus pour voir le nom de la station.

Cliquer dessus pour voir les observations et prévisions météorologiques.

Pour changer de carte: cliquez sur les boutons verts avec une croix noire pour zoomer, sur le bouton vert avec un tiret pour effectuer un zoom arrière, ou sur les flèches vertes pour les cartes adjacentes.


METAR-TAF: